Regional Weather Roundup
Issued by NWS State College, PA

Home | Current Version | Previous Version | Text Only | Print | Product List | Glossary Off
Versions: 1 2 3 4 5 6 7 8 9 10 11 12 13 14 15 16 17 18 19 20 21 22 23 24 25 26 27 28 29 30 31 32 33 34 35 36 37 38 39 40 41 42 43 44 45 46 47 48 49 50

000
ASUS41 KCTP 201503
RWRCTP

REGIONAL WEATHER ROUNDUP
NATIONAL WEATHER SERVICE STATE COLLEGE PA
1100 AM EDT SUN AUG 20 2017

Note: "fair" indicates few or no clouds below 12,000 feet with no
significant weather and/or obstructions to visibility.

* = STATION THAT DOES NOT REPORT PRECIPITATION /E.G. RAIN...SNOW...ETC/
    THUNDER OR FOG.

PAZ002>004-007>009-013>016-020>023-029>032-201600-
WESTERN PENNSYLVANIA

CITY           SKY/WX    TMP DP  RH WIND       PRES   REMARKS
ERIE           SUNNY     77  59  53 S8        30.14R
MEADVILLE      SUNNY     73  61  65 SW7       30.17R
FRANKLIN*      SUNNY     73  57  56 S7        30.18R
NEW CASTLE     FAIR      73  63  70 S3        30.18R
BEAVER COUNTY  NOT AVBL
BUTLER*        SUNNY     68  63  84 CALM      30.19R
PITTSBURGH INT MOSUNNY   71  65  81 E3        30.17R
PITTSBURGH     SUNNY     70  63  78 CALM      30.17R
INDIANA*       SUNNY     72  63  73 SW5       30.20R
LATROBE        SUNNY     72  63  73 CALM      30.17S
WASHINGTON CO* SUNNY     72  64  78 E3        30.18R
$$

PAZ004>006-010>012-017>019-024>028-033>037-041-042-045-046-049>053-201600-
CENTRAL PENNSYLVANIA

CITY           SKY/WX    TMP DP  RH WIND       PRES   REMARKS
BRADFORD       SUNNY     71  59  65 W9        30.17R
DUBOIS         SUNNY     70  59  68 SW6       30.17R
CLEARFIELD     CLOUDY    64  62  93 SW6       30.18R
JOHNSTOWN      MOSUNNY   70  60  70 CALM      30.20R
ALTOONA        SUNNY     72  61  68 CALM      30.18R
STATE COLLEGE  NOT AVBL
WILLIAMSPORT   MOSUNNY   72  61  68 W5        30.11R
SELINSGROVE    SUNNY     75  63  66 CALM      30.13R
FT INDIANTOWN  SUNNY     75  60  60 NW5       30.12S
CAPITAL CITY   SUNNY     77  58  51 NW8       30.13R
HARRISBURG     SUNNY     76  61  59 VRB3      30.12R
YORK           SUNNY     76  61  59 CALM      30.14R
$$

PAZ038>040-043-044-047-048-054-055-060>062-067>071-201600-
EASTERN PENNSYLVANIA

CITY           SKY/WX    TMP DP  RH WIND       PRES   REMARKS
SCRANTON       SUNNY     71  60  68 NW8       30.12R
MOUNT POCONO     N/A     67  55  65 NW9       30.14R
ALLENTOWN      SUNNY     74  60  61 W9        30.10R
QUAKERTOWN*    SUNNY     73  63  68 NW5       30.12S
READING        SUNNY     76  65  68 VRB7      30.11R
LANCASTER      SUNNY     76  62  62 NW6       30.13R
COATESVILLE    SUNNY     73  61  64 N6G12     30.14R
POTTSTOWN      SUNNY     74  60  61 NW9       30.12R
BLUE BELL      SUNNY     73  63  68 W5        30.12R
DOYLESTOWN     SUNNY     76  62  62 VRB7      30.10R
WILLOW GROVE   NOT AVBL
NORTH PHILA    SUNNY     79  62  56 VRB7      30.11R
PHILADELPHIA   MOSUNNY   78  57  48 NW10      30.10R
$$




USA.gov is the U.S. government's official web portal to all federal, state and local government web resources and services.